Regional Weather Roundup
Issued by NWS

Home | Current Version | Previous Version | Text Only | Print | Product List | Glossary Off
Versions: 1 2 3 4 5 6 7 8 9 10 11 12 13 14 15 16 17 18 19 20 21 22 23 24 25 26 27 28 29 30 31 32 33 34 35 36 37 38 39 40 41 42 43 44 45 46 47 48 49 50

000
ASUS43 KLSX 060459
RWRMO

WEATHER SUMMARY FOR MISSOURI
NATIONAL WEATHER SERVICE SPRINGFIELD MO
1100 PM CST THU MAR 05 2015

NOTE: "FAIR" INDICATES FEW OR NO CLOUDS BELOW 12,000 FEET WITH NO
       SIGNIFICANT WEATHER AND/OR OBSTRUCTIONS TO VISIBILITY.
       CURRENT SKY AND/OR WEATHER CONDITIONS ARE NOT AVAILABLE FOR
       CHILLICOTHE AND FARMINGTON.

MOZ001>031-035>038-043-044-053-054-060600-
...NORTHERN AND WESTERN MISSOURI...

CITY           SKY/WX    TMP DP  RH WIND       PRES   REMARKS
KANSAS CTY INT CLEAR     22  13  68 S12       30.44F WCI  10
KANSAS C DTWN  CLEAR     26  12  55 S7        30.48F WCI  18
LEE`S SUMMIT   CLEAR     24  12  60 S8        30.47F WCI  15
ST JOSEPH      CLEAR     22   9  57 S9        30.45F WCI  12
CHILLICOTHE      N/A     21   9  59 SE3       30.50F
KIRKSVILLE     CLEAR     13   9  84 SE6       30.50F WCI   4

$$
MOZ066>068-077>081-088>096-101>105-060600-
...SOUTHWEST MISSOURI...

CITY           SKY/WX    TMP DP  RH WIND       PRES   REMARKS
SPRINGFIELD    CLEAR     21  12  68 SE6       30.51S WCI  13
JOPLIN         CLEAR     25  14  63 SE6       30.52R WCI  18

$$
MOZ032>034-039>042-045>050-055>058-069>072-060600-
...CENTRAL MISSOURI...

CITY           SKY/WX    TMP DP  RH WIND       PRES   REMARKS
COLUMBIA       CLEAR     18   9  68 SE8       30.53F WCI   8
JEFFERSON CITY CLEAR     19   9  65 E6        30.57S WCI  11
ROLLA          CLEAR     19  10  68 E7        30.51F WCI  10
SEDALIA        CLEAR     20  10  65 SE7       30.52F WCI  11
OSAGE BEACH    CLEAR     16   9  73 SE3       30.53F

$$
MOZ051-052-059>065-060600-
...EAST CENTRAL MISSOURI...

CITY           SKY/WX    TMP DP  RH WIND       PRES   REMARKS
ST LOUIS INTL  CLEAR     17   5  59 E6        30.59F WCI   9
SPIRIT OF STL  CLEAR     17   7  64 CALM      30.59S
ST CHARLES     CLEAR     11   3  70 E5        30.60F WCI   3

$$
MOZ072>076-082>087-097>100-106>115-060600-
...SOUTH CENTRAL AND SOUTHEAST MISSOURI...

CITY           SKY/WX    TMP DP  RH WIND       PRES   REMARKS
CAPE GIRARDEAU MOCLDY    10   6  84 CALM      30.62R
FARMINGTON     CLEAR     16  10  79 E3        30.58S
POPLAR BLUFF   PTCLDY    16  11  80 CALM      30.61S
WEST PLAINS    PTCLDY    13   7  77 CALM      30.53F

$$


USA.gov is the U.S. government's official web portal to all federal, state and local government web resources and services.